TimeEST,TemperatureF,Dew PointF,Humidity,Sea Level PressureIn,VisibilityMPH,Wind Direction,Wind SpeedMPH,Gust SpeedMPH,PrecipitationIn,Events,Conditions,WindDirDegrees,DateUTC
12:15 AM,59.0,57.2,94,30.12,10.0,NW,4.6,-,N/A,,Mostly Cloudy,320,2013-02-20 05:15:00
12:35 AM,59.0,55.4,88,30.12,10.0,NW,5.8,-,N/A,,Mostly Cloudy,320,2013-02-20 05:35:00
12:55 AM,57.2,55.4,94,30.12,10.0,NNW,3.5,-,N/A,,Mostly Cloudy,330,2013-02-20 05:55:00
1:15 AM,55.4,55.4,100,30.12,10.0,Calm,Calm,-,N/A,,Scattered Clouds,0,2013-02-20 06:15:00
1:55 AM,53.6,53.6,100,30.12,10.0,Calm,Calm,-,N/A,,Mostly Cloudy,0,2013-02-20 06:55:00
2:15 AM,53.6,53.6,100,30.13,10.0,Calm,Calm,-,N/A,,Overcast,0,2013-02-20 07:15:00
2:35 AM,53.6,53.6,100,30.13,0.5,NNW,9.2,-,N/A,Fog,Fog,330,2013-02-20 07:35:00
2:55 AM,53.6,48.2,82,30.13,10.0,NNW,10.4,-,N/A,,Partly Cloudy,330,2013-02-20 07:55:00
3:15 AM,51.8,46.4,82,30.13,10.0,North,5.8,-,N/A,,Clear,350,2013-02-20 08:15:00
3:35 AM,50.0,46.4,87,30.13,10.0,North,5.8,-,N/A,,Clear,350,2013-02-20 08:35:00
3:55 AM,48.2,44.6,87,30.13,10.0,North,5.8,-,N/A,,Clear,350,2013-02-20 08:55:00
4:15 AM,48.2,44.6,87,30.13,10.0,North,6.9,-,N/A,,Clear,350,2013-02-20 09:15:00
4:35 AM,48.2,42.8,82,30.14,10.0,North,9.2,-,N/A,,Clear,350,2013-02-20 09:35:00
4:55 AM,46.4,41.0,81,30.14,10.0,North,8.1,-,N/A,,Clear,350,2013-02-20 09:55:00
5:15 AM,46.4,39.2,76,30.14,10.0,North,5.8,-,N/A,,Clear,350,2013-02-20 10:15:00
5:35 AM,44.6,39.2,81,30.15,10.0,North,4.6,-,N/A,,Clear,350,2013-02-20 10:35:00
6:15 AM,41.0,39.2,93,30.17,10.0,Calm,Calm,-,N/A,,Clear,0,2013-02-20 11:15:00
6:35 AM,41.0,39.2,93,30.18,10.0,NNW,5.8,-,N/A,,Clear,340,2013-02-20 11:35:00
6:50 AM,41.0,39.2,93,30.18,10.0,NNW,5.8,-,N/A,,Clear,330,2013-02-20 11:50:00
7:50 AM,41.0,37.4,87,30.19,10.0,NNW,5.8,-,N/A,,Clear,340,2013-02-20 12:50:00
8:50 AM,46.4,32.0,57,30.20,10.0,North,6.9,-,N/A,,Clear,360,2013-02-20 13:50:00
10:50 AM,53.6,24.8,33,30.20,10.0,North,4.6,-,N/A,,Clear,360,2013-02-20 15:50:00
11:50 AM,57.2,26.6,31,30.18,10.0,North,-9999.0,-,N/A,,Clear,0,2013-02-20 16:50:00
12:50 PM,60.8,28.4,29,30.14,10.0,Calm,Calm,-,N/A,,Clear,0,2013-02-20 17:50:00
1:50 PM,64.4,32.0,30,30.10,6.0,NNE,3.5,-,N/A,,Smoke,20,2013-02-20 18:50:00
2:50 PM,66.2,35.6,32,30.09,6.0,NNW,4.6,-,N/A,,Smoke,330,2013-02-20 19:50:00
3:50 PM,68.0,32.0,26,30.08,7.0,NW,5.8,-,N/A,,Clear,320,2013-02-20 20:50:00
4:50 PM,66.2,32.0,28,30.08,7.0,NNW,5.8,-,N/A,,Clear,330,2013-02-20 21:50:00
5:50 PM,62.6,33.8,34,30.10,7.0,NW,3.5,-,N/A,,Clear,310,2013-02-20 22:50:00
7:50 PM,51.8,37.4,58,30.14,7.0,Calm,Calm,-,N/A,,Clear,0,2013-02-21 00:50:00
8:15 PM,50.0,35.6,58,30.13,10.0,Calm,Calm,-,N/A,,Clear,0,2013-02-21 01:15:00
8:35 PM,53.6,37.4,54,30.12,10.0,Calm,Calm,-,N/A,,Clear,0,2013-02-21 01:35:00
8:55 PM,50.0,39.2,66,30.13,10.0,Calm,Calm,-,N/A,,Clear,0,2013-02-21 01:55:00
9:15 PM,50.0,39.2,66,30.15,10.0,Calm,Calm,-,N/A,,Clear,0,2013-02-21 02:15:00
9:35 PM,48.2,41.0,76,30.14,10.0,Calm,Calm,-,N/A,,Clear,0,2013-02-21 02:35:00
9:55 PM,48.2,41.0,76,30.14,10.0,Calm,Calm,-,N/A,,Clear,0,2013-02-21 02:55:00
10:15 PM,46.4,41.0,81,30.14,10.0,Calm,Calm,-,N/A,,Clear,0,2013-02-21 03:15:00
10:35 PM,44.6,41.0,87,30.14,10.0,Calm,Calm,-,N/A,,Clear,0,2013-02-21 03:35:00
10:55 PM,44.6,39.2,81,30.13,10.0,Calm,Calm,-,N/A,,Clear,0,2013-02-21 03:55:00
11:15 PM,44.6,39.2,81,30.13,10.0,Calm,Calm,-,N/A,,Clear,0,2013-02-21 04:15:00
11:35 PM,41.0,39.2,93,30.12,10.0,Calm,Calm,-,N/A,,Clear,0,2013-02-21 04:35:00
11:55 PM,41.0,39.2,93,30.12,10.0,Calm,Calm,-,N/A,,Clear,0,2013-02-21 04:55:00